| time (UTC) | temp C | wind direction | speed KPH | gust KPH | rain 1hr cm | rain 24hr cm | rain mn cm | humidity % | barometer mb |
| 20260510202005 | 8 | 29 | 9.7 | 25.7 | 0.00 | 0.00 | 0.00 | 77 | 1013.9 |
| 20260510201505 | 8 | 37 | 9.7 | 29.0 | 0.00 | 0.00 | 0.00 | 77 | 1013.9 |
| 20260510201005 | 8 | 46 | 11.3 | 29.0 | 0.00 | 0.00 | 0.00 | 76 | 1014.2 |
| 20260510200718 | 8 | 44 | 11.3 | 29.0 | 0.00 | 0.00 | 0.00 | 76 | 1014.1 |
| 20260510200004 | 8 | 15 | 11.3 | 37.0 | 0.00 | 0.00 | 0.00 | 75 | 1014.1 |
| 20260510195505 | 8 | 2 | 12.9 | 37.0 | 0.00 | 0.00 | 0.00 | 75 | 1014.0 |
| 20260510195003 | 9 | 17 | 12.9 | 33.8 | 0.00 | 0.00 | 0.00 | 75 | 1013.9 |
| 20260510194503 | 9 | 25 | 14.5 | 40.2 | 0.00 | 0.00 | 0.00 | 75 | 1014.2 |
| 20260510194217 | 9 | 15 | 16.1 | 40.2 | 0.00 | 0.00 | 0.00 | 75 | 1014.1 |
| 20260510193503 | 9 | 21 | 14.5 | 37.0 | 0.00 | 0.00 | 0.00 | 76 | 1013.9 |
| 20260510193007 | 9 | 12 | 14.5 | 48.3 | 0.00 | 0.00 | 0.00 | 76 | 1013.8 |
| 20260510192506 | 10 | 16 | 17.7 | 48.3 | 0.00 | 0.00 | 0.00 | 76 | 1014.1 |
| 20260510192005 | 10 | 19 | 17.7 | 40.2 | 0.00 | 0.00 | 0.00 | 76 | 1014.1 |
| 20260510191720 | 10 | 12 | 17.7 | 40.2 | 0.00 | 0.00 | 0.00 | 76 | 1013.8 |
| 20260510191005 | 10 | 17 | 17.7 | 54.7 | 0.00 | 0.00 | 0.00 | 76 | 1014.1 |
| 20260510190505 | 10 | 20 | 17.7 | 54.7 | 0.00 | 0.00 | 0.00 | 76 | 1013.9 |
| 20260510190005 | 10 | 25 | 16.1 | 48.3 | 0.00 | 0.00 | 0.00 | 76 | 1013.9 |
| 20260510185505 | 10 | 36 | 17.7 | 51.5 | 0.00 | 0.00 | 0.00 | 76 | 1014.1 |
| 20260510185005 | 10 | 39 | 22.5 | 51.5 | 0.00 | 0.00 | 0.00 | 75 | 1014.1 |
| 20260510184503 | 10 | 35 | 19.3 | 59.5 | 0.00 | 0.00 | 0.00 | 75 | 1014.0 |
| 20260510184005 | 10 | 23 | 17.7 | 59.5 | 0.00 | 0.00 | 0.00 | 75 | 1013.7 |
| 20260510183503 | 11 | 18 | 17.7 | 40.2 | 0.00 | 0.00 | 0.00 | 74 | 1013.8 |
| 20260510183005 | 11 | 37 | 19.3 | 40.2 | 0.00 | 0.00 | 0.00 | 75 | 1013.8 |
| 20260510182719 | 11 | 42 | 20.9 | 40.2 | 0.00 | 0.00 | 0.00 | 75 | 1013.9 |
| 20260510182005 | 11 | 20 | 20.9 | 54.7 | 0.00 | 0.00 | 0.00 | 74 | 1014.0 |
| 20260510181505 | 11 | 16 | 17.7 | 54.7 | 0.00 | 0.00 | 0.00 | 74 | 1014.1 |
| 20260510181005 | 11 | 17 | 17.7 | 59.5 | 0.00 | 0.00 | 0.00 | 74 | 1014.1 |
| 20260510180503 | 11 | 24 | 19.3 | 59.5 | 0.00 | 0.00 | 0.00 | 74 | 1014.0 |
| 20260510180005 | 11 | 36 | 17.7 | 51.5 | 0.00 | 0.00 | 0.00 | 73 | 1014.1 |
| 20260510175503 | 11 | 47 | 19.3 | 59.5 | 0.00 | 0.00 | 0.00 | 73 | 1013.8 |
| 20260510175003 | 11 | 37 | 22.5 | 59.5 | 0.00 | 0.00 | 0.00 | 72 | 1014.1 |
| 20260510174719 | 11 | 32 | 22.5 | 59.5 | 0.00 | 0.00 | 0.00 | 72 | 1013.9 |
| 20260510174005 | 12 | 24 | 17.7 | 51.5 | 0.00 | 0.00 | 0.00 | 73 | 1014.1 |
| 20260510173505 | 12 | 35 | 19.3 | 54.7 | 0.00 | 0.00 | 0.00 | 72 | 1013.8 |
| 20260510173220 | 12 | 31 | 20.9 | 54.7 | 0.00 | 0.00 | 0.00 | 73 | 1014.1 |
| 20260510172505 | 12 | 17 | 19.3 | 48.3 | 0.00 | 0.00 | 0.00 | 73 | 1013.9 |
| 20260510172003 | 12 | 27 | 20.9 | 48.3 | 0.00 | 0.00 | 0.00 | 72 | 1013.9 |
| 20260510171505 | 12 | 27 | 19.3 | 54.7 | 0.00 | 0.00 | 0.00 | 73 | 1014.0 |
| 20260510171005 | 12 | 21 | 16.1 | 54.7 | 0.00 | 0.00 | 0.00 | 73 | 1014.0 |
| 20260510170719 | 12 | 18 | 16.1 | 54.7 | 0.00 | 0.00 | 0.00 | 72 | 1014.1 |
| 20260510170004 | 12 | 29 | 19.3 | 48.3 | 0.00 | 0.00 | 0.00 | 72 | 1014.1 |
| 20260510165505 | 12 | 33 | 19.3 | 48.3 | 0.00 | 0.00 | 0.00 | 72 | 1014.1 |
| 20260510165005 | 12 | 38 | 20.9 | 51.5 | 0.00 | 0.00 | 0.00 | 72 | 1014.1 |
| 20260510164719 | 12 | 30 | 22.5 | 51.5 | 0.00 | 0.00 | 0.00 | 73 | 1014.0 |
| 20260510164003 | 12 | 19 | 20.9 | 59.5 | 0.00 | 0.00 | 0.00 | 72 | 1014.0 |
| 20260510163503 | 12 | 26 | 20.9 | 59.5 | 0.00 | 0.00 | 0.00 | 73 | 1014.4 |
| 20260510163004 | 12 | 29 | 17.7 | 54.7 | 0.00 | 0.00 | 0.00 | 72 | 1014.3 |
| 20260510162505 | 12 | 35 | 19.3 | 54.7 | 0.00 | 0.00 | 0.00 | 71 | 1014.4 |
| 20260510162003 | 13 | 37 | 16.1 | 43.5 | 0.00 | 0.00 | 0.00 | 72 | 1014.4 |
| 20260510161503 | 13 | 27 | 16.1 | 43.5 | 0.00 | 0.00 | 0.00 | 71 | 1014.4 |
| 20260510161003 | 13 | 16 | 20.9 | 59.5 | 0.00 | 0.00 | 0.00 | 71 | 1014.6 |
| 20260510160503 | 13 | 17 | 19.3 | 59.5 | 0.00 | 0.00 | 0.00 | 70 | 1014.7 |
| 20260510160005 | 13 | 23 | 19.3 | 48.3 | 0.00 | 0.00 | 0.00 | 71 | 1014.7 |
| 20260510155505 | 13 | 14 | 17.7 | 48.3 | 0.00 | 0.00 | 0.00 | 69 | 1014.7 |
| 20260510155003 | 13 | 8 | 16.1 | 40.2 | 0.00 | 0.00 | 0.00 | 70 | 1014.8 |
| 20260510154503 | 13 | 38 | 16.1 | 37.0 | 0.00 | 0.00 | 0.00 | 70 | 1014.9 |
| 20260510154003 | 13 | 23 | 14.5 | 37.0 | 0.00 | 0.00 | 0.00 | 71 | 1014.9 |
| 20260510153505 | 13 | 7 | 19.3 | 43.5 | 0.00 | 0.00 | 0.00 | 70 | 1015.0 |
| 20260510153005 | 13 | 5 | 20.9 | 43.5 | 0.00 | 0.00 | 0.00 | 71 | 1014.9 |
| 20260510152503 | 13 | 21 | 24.1 | 48.3 | 0.00 | 0.00 | 0.00 | 71 | 1015.0 |
| 20260510152003 | 12 | 9 | 20.9 | 48.3 | 0.00 | 0.00 | 0.00 | 72 | 1015.1 |
| 20260510151503 | 13 | 359 | 17.7 | 40.2 | 0.00 | 0.00 | 0.00 | 70 | 1015.1 |
| 20260510151005 | 13 | 20 | 19.3 | 48.3 | 0.00 | 0.00 | 0.00 | 71 | 1015.0 |
| 20260510150505 | 13 | 24 | 19.3 | 48.3 | 0.00 | 0.00 | 0.00 | 68 | 1015.0 |
| 20260510150217 | 13 | 36 | 20.9 | 59.5 | 0.00 | 0.00 | 0.00 | 69 | 1015.0 |
| 20260510145506 | 13 | 50 | 19.3 | 59.5 | 0.00 | 0.00 | 0.00 | 71 | 1015.2 |
| 20260510145005 | 13 | 36 | 16.1 | 48.3 | 0.00 | 0.00 | 0.00 | 72 | 1015.1 |
| 20260510144505 | 13 | 25 | 14.5 | 48.3 | 0.00 | 0.00 | 0.00 | 73 | 1015.3 |
| 20260510144003 | 13 | 36 | 16.1 | 43.5 | 0.00 | 0.00 | 0.00 | 72 | 1015.3 |
| 20260510143505 | 13 | 47 | 14.5 | 40.2 | 0.00 | 0.00 | 0.00 | 72 | 1015.3 |
| 20260510143005 | 13 | 35 | 16.1 | 40.2 | 0.00 | 0.00 | 0.00 | 72 | 1015.3 |
| 20260510142503 | 13 | 33 | 16.1 | 48.3 | 0.00 | 0.00 | 0.00 | 72 | 1015.5 |
| 20260510142005 | 13 | 32 | 20.9 | 48.3 | 0.00 | 0.00 | 0.00 | 71 | 1015.4 |
| 20260510141505 | 13 | 28 | 22.5 | 43.5 | 0.00 | 0.00 | 0.00 | 72 | 1015.7 |
| 20260510141219 | 13 | 32 | 19.3 | 43.5 | 0.00 | 0.00 | 0.00 | 72 | 1015.6 |
| 20260510140505 | 13 | 31 | 19.3 | 51.5 | 0.00 | 0.00 | 0.00 | 72 | 1015.8 |
| 20260510140005 | 13 | 33 | 20.9 | 51.5 | 0.00 | 0.00 | 0.00 | 72 | 1015.6 |
| 20260510135719 | 13 | 13 | 17.7 | 51.5 | 0.00 | 0.00 | 0.00 | 73 | 1015.7 |
| 20260510135005 | 13 | 14 | 16.1 | 37.0 | 0.00 | 0.00 | 0.00 | 73 | 1015.8 |
| 20260510134717 | 12 | 26 | 17.7 | 37.0 | 0.00 | 0.00 | 0.00 | 73 | 1015.9 |
| 20260510134005 | 12 | 28 | 19.3 | 40.2 | 0.00 | 0.00 | 0.00 | 74 | 1015.8 |
| 20260510133503 | 12 | 39 | 16.1 | 40.2 | 0.00 | 0.00 | 0.00 | 73 | 1015.9 |
| 20260510133005 | 13 | 43 | 14.5 | 40.2 | 0.00 | 0.00 | 0.00 | 72 | 1016.0 |
| 20260510132506 | 13 | 39 | 17.7 | 40.2 | 0.00 | 0.00 | 0.00 | 72 | 1015.8 |
| 20260510132005 | 13 | 35 | 17.7 | 37.0 | 0.00 | 0.00 | 0.00 | 73 | 1015.8 |
| 20260510131505 | 13 | 40 | 12.9 | 33.8 | 0.00 | 0.00 | 0.00 | 73 | 1015.9 |
| 20260510131005 | 13 | 35 | 12.9 | 33.8 | 0.00 | 0.00 | 0.00 | 73 | 1015.8 |
| 20260510130717 | 12 | 27 | 14.5 | 33.8 | 0.00 | 0.00 | 0.00 | 74 | 1015.9 |
| 20260510130005 | 12 | 17 | 16.1 | 29.0 | 0.00 | 0.00 | 0.00 | 73 | 1015.9 |
| 20260510125505 | 13 | 22 | 12.9 | 33.8 | 0.00 | 0.00 | 0.00 | 74 | 1015.8 |
| 20260510125218 | 13 | 27 | 12.9 | 33.8 | 0.00 | 0.00 | 0.00 | 74 | 1016.0 |
| 20260510124506 | 12 | 24 | 14.5 | 37.0 | 0.00 | 0.00 | 0.00 | 75 | 1016.2 |
| 20260510124005 | 12 | 7 | 17.7 | 51.5 | 0.00 | 0.00 | 0.00 | 75 | 1016.1 |
| 20260510123505 | 12 | 17 | 19.3 | 51.5 | 0.00 | 0.00 | 0.00 | 75 | 1016.2 |
| 20260510123005 | 12 | 32 | 17.7 | 48.3 | 0.00 | 0.00 | 0.00 | 75 | 1016.0 |
| 20260510122717 | 12 | 22 | 16.1 | 48.3 | 0.00 | 0.00 | 0.00 | 75 | 1016.3 |
| 20260510122218 | 12 | 18 | 12.9 | 48.3 | 0.00 | 0.00 | 0.00 | 75 | 1016.2 |
| 20260510121503 | 12 | 38 | 14.5 | 29.0 | 0.00 | 0.00 | 0.00 | 75 | 1015.8 |
| 20260510121218 | 12 | 34 | 14.5 | 29.0 | 0.00 | 0.00 | 0.00 | 75 | 1016.4 |
| 20260510120503 | 12 | 26 | 12.9 | 37.0 | 0.00 | 0.00 | 0.00 | 75 | 1016.2 |
| 20260510120005 | 12 | 29 | 16.1 | 37.0 | 0.00 | 0.00 | 0.00 | 75 | 1016.2 |
| 20260510115717 | 12 | 26 | 19.3 | 37.0 | 0.00 | 0.00 | 0.00 | 75 | 1016.3 |
| 20260510115005 | 12 | 15 | 16.1 | 33.8 | 0.00 | 0.00 | 0.00 | 75 | 1016.4 |
| 20260510114505 | 12 | 22 | 14.5 | 33.8 | 0.00 | 0.00 | 0.00 | 75 | 1016.2 |
| 20260510114003 | 12 | 28 | 12.9 | 37.0 | 0.00 | 0.00 | 0.00 | 75 | 1016.3 |
| 20260510113505 | 12 | 36 | 16.1 | 37.0 | 0.00 | 0.00 | 0.00 | 75 | 1016.3 |
| 20260510113218 | 12 | 36 | 16.1 | 33.8 | 0.00 | 0.00 | 0.00 | 75 | 1016.3 |
| 20260510112503 | 12 | 48 | 12.9 | 33.8 | 0.00 | 0.00 | 0.00 | 75 | 1016.4 |
| 20260510112003 | 12 | 34 | 14.5 | 33.8 | 0.00 | 0.00 | 0.00 | 75 | 1016.4 |
| 20260510111505 | 12 | 36 | 14.5 | 37.0 | 0.00 | 0.00 | 0.00 | 75 | 1016.5 |
| 20260510111005 | 12 | 38 | 11.3 | 37.0 | 0.00 | 0.00 | 0.00 | 76 | 1016.7 |
| 20260510110503 | 12 | 29 | 14.5 | 33.8 | 0.00 | 0.00 | 0.00 | 76 | 1016.8 |
| 20260510110005 | 12 | 20 | 16.1 | 37.0 | 0.00 | 0.00 | 0.00 | 75 | 1016.6 |
| 20260510105505 | 12 | 11 | 14.5 | 37.0 | 0.00 | 0.00 | 0.00 | 76 | 1016.8 |
| 20260510105005 | 11 | 22 | 16.1 | 40.2 | 0.00 | 0.00 | 0.00 | 76 | 1016.8 |
| 20260510104504 | 11 | 30 | 16.1 | 40.2 | 0.00 | 0.00 | 0.00 | 76 | 1016.8 |
| 20260510104003 | 11 | 35 | 12.9 | 40.2 | 0.00 | 0.00 | 0.00 | 77 | 1016.8 |
| 20260510103503 | 11 | 36 | 11.3 | 37.0 | 0.00 | 0.00 | 0.00 | 77 | 1016.8 |
| 20260510103005 | 12 | 30 | 11.3 | 37.0 | 0.00 | 0.00 | 0.00 | 77 | 1017.0 |
| 20260510102503 | 11 | 28 | 12.9 | 37.0 | 0.00 | 0.00 | 0.00 | 77 | 1017.0 |
| 20260510102005 | 11 | 22 | 14.5 | 37.0 | 0.00 | 0.00 | 0.00 | 77 | 1017.0 |
| 20260510101503 | 11 | 27 | 12.9 | 29.0 | 0.00 | 0.00 | 0.00 | 77 | 1017.2 |
| 20260510101005 | 11 | 27 | 14.5 | 33.8 | 0.00 | 0.00 | 0.00 | 77 | 1017.3 |
| 20260510100503 | 11 | 30 | 14.5 | 33.8 | 0.00 | 0.00 | 0.00 | 77 | 1017.1 |
| 20260510100003 | 11 | 29 | 14.5 | 33.8 | 0.00 | 0.00 | 0.00 | 78 | 1016.9 |
| 20260510095718 | 11 | 22 | 14.5 | 29.0 | 0.00 | 0.00 | 0.00 | 78 | 1016.8 |
| 20260510095005 | 11 | 44 | 12.9 | 25.7 | 0.00 | 0.00 | 0.00 | 77 | 1017.0 |
| 20260510094505 | 11 | 47 | 11.3 | 25.7 | 0.00 | 0.00 | 0.00 | 78 | 1017.1 |
| 20260510094003 | 11 | 41 | 11.3 | 33.8 | 0.00 | 0.00 | 0.00 | 78 | 1017.2 |
| 20260510093505 | 11 | 31 | 12.9 | 33.8 | 0.00 | 0.00 | 0.00 | 78 | 1016.9 |
| 20260510093219 | 11 | 31 | 12.9 | 37.0 | 0.00 | 0.00 | 0.00 | 78 | 1017.2 |
| 20260510092718 | 11 | 26 | 12.9 | 37.0 | 0.00 | 0.00 | 0.00 | 79 | 1017.1 |
| 20260510092217 | 11 | 49 | 11.3 | 25.7 | 0.00 | 0.00 | 0.00 | 78 | 1017.0 |
| 20260510091505 | 11 | 26 | 12.9 | 29.0 | 0.00 | 0.00 | 0.00 | 79 | 1017.2 |
| 20260510091003 | 11 | 42 | 11.3 | 29.0 | 0.00 | 0.00 | 0.00 | 78 | 1017.2 |
| 20260510090503 | 11 | 50 | 12.9 | 29.0 | 0.00 | 0.00 | 0.00 | 78 | 1017.0 |
| 20260510090219 | 12 | 35 | 12.9 | 29.0 | 0.00 | 0.00 | 0.00 | 78 | 1017.1 |
| 20260510085505 | 11 | 35 | 11.3 | 33.8 | 0.00 | 0.00 | 0.00 | 79 | 1017.0 |
| 20260510085005 | 11 | 30 | 12.9 | 33.8 | 0.00 | 0.00 | 0.00 | 80 | 1017.1 |
| 20260510084505 | 11 | 26 | 12.9 | 37.0 | 0.00 | 0.00 | 0.00 | 81 | 1017.3 |
| 20260510084216 | 10 | 29 | 12.9 | 37.0 | 0.00 | 0.00 | 0.00 | 80 | 1017.2 |
| 20260510083503 | 10 | 42 | 8.0 | 33.8 | 0.00 | 0.00 | 0.00 | 80 | 1017.0 |
| 20260510083005 | 11 | 32 | 9.7 | 29.0 | 0.00 | 0.00 | 0.00 | 80 | 1017.2 |
| 20260510082505 | 11 | 30 | 12.9 | 33.8 | 0.00 | 0.00 | 0.00 | 81 | 1017.1 |
| 20260510082005 | 11 | 17 | 12.9 | 33.8 | 0.00 | 0.00 | 0.00 | 81 | 1017.3 |
| 20260510081717 | 11 | 24 | 9.7 | 33.8 | 0.00 | 0.00 | 0.00 | 80 | 1017.4 |
| 20260510081005 | 11 | 53 | 6.4 | 22.5 | 0.00 | 0.00 | 0.00 | 82 | 1017.2 |
| 20260510080503 | 10 | 44 | 8.0 | 22.5 | 0.00 | 0.00 | 0.00 | 82 | 1017.1 |
| 20260510080218 | 10 | 37 | 8.0 | 22.5 | 0.00 | 0.00 | 0.00 | 82 | 1017.1 |
| 20260510075505 | 10 | 41 | 11.3 | 33.8 | 0.00 | 0.00 | 0.00 | 82 | 1017.0 |
| 20260510075005 | 10 | 33 | 16.1 | 40.2 | 0.00 | 0.00 | 0.00 | 82 | 1017.0 |
| 20260510074719 | 10 | 39 | 17.7 | 40.2 | 0.00 | 0.00 | 0.00 | 83 | 1017.2 |
| 20260510074218 | 10 | 43 | 19.3 | 40.2 | 0.00 | 0.00 | 0.00 | 83 | 1017.1 |
| 20260510073503 | 10 | 31 | 14.5 | 33.8 | 0.00 | 0.00 | 0.00 | 83 | 1016.8 |
| 20260510073003 | 10 | 27 | 11.3 | 29.0 | 0.00 | 0.00 | 0.00 | 83 | 1017.0 |
| 20260510072508 | 10 | 26 | 12.9 | 33.8 | 0.00 | 0.00 | 0.00 | 83 | 1016.8 |
| 20260510072005 | 10 | 42 | 12.9 | 33.8 | 0.00 | 0.00 | 0.00 | 83 | 1017.0 |
| 20260510071505 | 10 | 44 | 12.9 | 29.0 | 0.00 | 0.00 | 0.00 | 84 | 1017.0 |
| 20260510071005 | 10 | 42 | 12.9 | 29.0 | 0.00 | 0.00 | 0.00 | 84 | 1016.9 |
| 20260510070503 | 10 | 47 | 11.3 | 37.0 | 0.00 | 0.00 | 0.00 | 85 | 1016.7 |
| 20260510070005 | 10 | 46 | 12.9 | 37.0 | 0.00 | 0.00 | 0.00 | 85 | 1017.0 |
| 20260510065505 | 10 | 37 | 12.9 | 29.0 | 0.00 | 0.00 | 0.00 | 86 | 1016.9 |
| 20260510065003 | 10 | 28 | 12.9 | 33.8 | 0.00 | 0.00 | 0.00 | 86 | 1016.8 |
| 20260510064719 | 10 | 21 | 12.9 | 33.8 | 0.00 | 0.00 | 0.00 | 86 | 1016.7 |
| 20260510064005 | 10 | 36 | 16.1 | 33.8 | 0.00 | 0.00 | 0.00 | 86 | 1016.6 |
| 20260510063505 | 10 | 48 | 17.7 | 37.0 | 0.00 | 0.00 | 0.00 | 86 | 1016.5 |
| 20260510063003 | 10 | 45 | 14.5 | 37.0 | 0.00 | 0.00 | 0.00 | 87 | 1016.7 |
| 20260510062719 | 10 | 45 | 14.5 | 37.0 | 0.00 | 0.00 | 0.00 | 87 | 1016.5 |
| 20260510062003 | 9 | 39 | 14.5 | 33.8 | 0.00 | 0.00 | 0.00 | 87 | 1016.5 |
| 20260510061505 | 9 | 39 | 11.3 | 33.8 | 0.00 | 0.00 | 0.00 | 87 | 1016.7 |
| 20260510061218 | 9 | 43 | 12.9 | 33.8 | 0.00 | 0.00 | 0.00 | 87 | 1016.5 |
| 20260510060505 | 9 | 39 | 12.9 | 37.0 | 0.00 | 0.00 | 0.00 | 87 | 1016.4 |
| 20260510060005 | 9 | 13 | 12.9 | 37.0 | 0.00 | 0.00 | 0.00 | 86 | 1016.4 |
| 20260510055503 | 9 | 17 | 11.3 | 29.0 | 0.00 | 0.00 | 0.00 | 87 | 1016.4 |
| 20260510055005 | 9 | 28 | 11.3 | 25.7 | 0.00 | 0.00 | 0.00 | 87 | 1016.3 |
| 20260510054505 | 9 | 19 | 11.3 | 25.7 | 0.00 | 0.00 | 0.00 | 87 | 1016.4 |
| 20260510054003 | 9 | 33 | 9.7 | 22.5 | 0.00 | 0.00 | 0.00 | 87 | 1016.3 |
| 20260510053503 | 9 | 31 | 8.0 | 22.5 | 0.00 | 0.00 | 0.00 | 87 | 1015.9 |
| 20260510053005 | 9 | 23 | 11.3 | 25.7 | 0.00 | 0.00 | 0.00 | 87 | 1016.2 |
| 20260510052505 | 9 | 28 | 14.5 | 25.7 | 0.00 | 0.00 | 0.00 | 87 | 1016.1 |
| 20260510052005 | 9 | 43 | 9.7 | 22.5 | 0.00 | 0.00 | 0.00 | 87 | 1016.2 |
| 20260510051718 | 9 | 41 | 11.3 | 25.7 | 0.00 | 0.00 | 0.00 | 87 | 1016.2 |
| 20260510051005 | 9 | 13 | 11.3 | 33.8 | 0.00 | 0.00 | 0.00 | 87 | 1016.4 |
| 20260510050505 | 9 | 28 | 9.7 | 29.0 | 0.00 | 0.00 | 0.00 | 87 | 1016.4 |
| 20260510050005 | 9 | 54 | 9.7 | 29.0 | 0.00 | 0.00 | 0.00 | 87 | 1016.3 |
| 20260510045505 | 9 | 38 | 8.0 | 29.0 | 0.00 | 0.00 | 0.00 | 87 | 1016.4 |
| 20260510045003 | 9 | 28 | 9.7 | 33.8 | 0.00 | 0.00 | 0.00 | 87 | 1016.4 |
| 20260510044505 | 9 | 34 | 11.3 | 33.8 | 0.00 | 0.00 | 0.00 | 87 | 1016.5 |
| 20260510044217 | 10 | 43 | 9.7 | 22.5 | 0.00 | 0.00 | 0.00 | 87 | 1016.3 |
| 20260510043504 | 10 | 43 | 8.0 | 22.5 | 0.00 | 0.00 | 0.00 | 87 | 1016.3 |
| 20260510043005 | 10 | 18 | 9.7 | 25.7 | 0.00 | 0.00 | 0.00 | 87 | 1016.1 |
| 20260510042718 | 10 | 18 | 9.7 | 25.7 | 0.00 | 0.00 | 0.00 | 87 | 1016.4 |
| 20260510042005 | 10 | 39 | 11.3 | 29.0 | 0.00 | 0.00 | 0.00 | 87 | 1016.5 |
| 20260510041503 | 10 | 44 | 11.3 | 29.0 | 0.00 | 0.00 | 0.00 | 86 | 1016.3 |
| 20260510041004 | 10 | 51 | 11.3 | 37.0 | 0.00 | 0.00 | 0.00 | 86 | 1016.4 |
| 20260510040505 | 10 | 37 | 12.9 | 37.0 | 0.00 | 0.00 | 0.00 | 86 | 1016.2 |
| 20260510040006 | 10 | 17 | 12.9 | 33.8 | 0.00 | 0.00 | 0.00 | 86 | 1016.5 |
| 20260510035505 | 10 | 33 | 12.9 | 29.0 | 0.00 | 0.00 | 0.00 | 87 | 1016.5 |
| 20260510035003 | 10 | 45 | 9.7 | 29.0 | 0.00 | 0.00 | 0.00 | 87 | 1016.5 |
| 20260510034503 | 10 | 27 | 9.7 | 25.7 | 0.00 | 0.00 | 0.00 | 87 | 1016.4 |
| 20260510034005 | 10 | 17 | 11.3 | 29.0 | 0.00 | 0.00 | 0.00 | 87 | 1016.7 |
| 20260510033505 | 10 | 27 | 14.5 | 33.8 | 0.00 | 0.00 | 0.00 | 87 | 1016.6 |
| 20260510033003 | 10 | 30 | 14.5 | 33.8 | 0.00 | 0.00 | 0.00 | 87 | 1016.8 |
| 20260510032720 | 10 | 33 | 14.5 | 33.8 | 0.00 | 0.00 | 0.00 | 88 | 1016.6 |
| 20260510032005 | 10 | 33 | 9.7 | 33.8 | 0.00 | 0.00 | 0.00 | 88 | 1016.8 |
| 20260510031505 | 10 | 43 | 11.3 | 33.8 | 0.00 | 0.00 | 0.00 | 89 | 1016.7 |
| 20260510031218 | 10 | 46 | 11.3 | 33.8 | 0.00 | 0.00 | 0.00 | 89 | 1016.5 |
| 20260510030503 | 10 | 45 | 12.9 | 37.0 | 0.00 | 0.00 | 0.00 | 89 | 1016.7 |
| 20260510030005 | 10 | 42 | 14.5 | 37.0 | 0.00 | 0.00 | 0.00 | 89 | 1016.7 |
| 20260510025505 | 10 | 46 | 14.5 | 37.0 | 0.00 | 0.00 | 0.00 | 89 | 1016.7 |
| 20260510025003 | 10 | 38 | 12.9 | 37.0 | 0.00 | 0.00 | 0.00 | 89 | 1016.7 |
| 20260510024506 | 10 | 29 | 11.3 | 37.0 | 0.00 | 0.00 | 0.00 | 89 | 1016.7 |
| 20260510024003 | 10 | 37 | 11.3 | 33.8 | 0.00 | 0.00 | 0.00 | 89 | 1016.6 |
| 20260510023510 | 10 | 36 | 12.9 | 33.8 | 0.00 | 0.00 | 0.00 | 89 | 1016.6 |
| 20260510023005 | 10 | 49 | 14.5 | 40.2 | 0.00 | 0.00 | 0.00 | 89 | 1016.6 |
| 20260510022506 | 10 | 45 | 14.5 | 40.2 | 0.00 | 0.00 | 0.00 | 89 | 1016.4 |
| 20260510022005 | 10 | 33 | 11.3 | 40.2 | 0.00 | 0.00 | 0.00 | 89 | 1016.3 |
| 20260510021505 | 10 | 24 | 14.5 | 40.2 | 0.00 | 0.00 | 0.00 | 89 | 1016.5 |
| 20260510021003 | 11 | 22 | 14.5 | 40.2 | 0.00 | 0.00 | 0.00 | 88 | 1016.4 |
| 20260510020503 | 11 | 21 | 11.3 | 37.0 | 0.00 | 0.00 | 0.00 | 88 | 1016.6 |
| 20260510020005 | 11 | 17 | 11.3 | 33.8 | 0.00 | 0.00 | 0.00 | 88 | 1016.6 |
| 20260510015505 | 11 | 25 | 11.3 | 29.0 | 0.00 | 0.00 | 0.00 | 89 | 1016.9 |
| 20260510015003 | 11 | 38 | 8.0 | 29.0 | 0.00 | 0.00 | 0.00 | 88 | 1016.8 |
| 20260510014503 | 10 | 47 | 6.4 | 29.0 | 0.00 | 0.00 | 0.00 | 88 | 1016.7 |
| 20260510014005 | 11 | 32 | 8.0 | 37.0 | 0.00 | 0.00 | 0.00 | 88 | 1016.6 |
| 20260510013504 | 11 | 12 | 11.3 | 37.0 | 0.00 | 0.00 | 0.00 | 88 | 1016.7 |
| 20260510013003 | 11 | 29 | 12.9 | 33.8 | 0.00 | 0.00 | 0.00 | 88 | 1016.6 |
| 20260510012505 | 11 | 44 | 9.7 | 37.0 | 0.00 | 0.00 | 0.00 | 89 | 1016.5 |
| 20260510012005 | 11 | 29 | 11.3 | 37.0 | 0.00 | 0.00 | 0.00 | 89 | 1016.7 |
| 20260510011503 | 11 | 30 | 12.9 | 37.0 | 0.00 | 0.00 | 0.00 | 90 | 1016.8 |
| 20260510011005 | 10 | 16 | 11.3 | 33.8 | 0.00 | 0.00 | 0.00 | 91 | 1016.7 |
| 20260510010503 | 10 | 10 | 11.3 | 33.8 | 0.00 | 0.00 | 0.00 | 92 | 1016.9 |
| 20260510010003 | 10 | 17 | 9.7 | 22.5 | 0.00 | 0.00 | 0.00 | 93 | 1016.6 |
| 20260510005505 | 10 | 22 | 9.7 | 29.0 | 0.00 | 0.00 | 0.00 | 93 | 1016.6 |
| 20260510005003 | 10 | 23 | 9.7 | 29.0 | 0.00 | 0.00 | 0.00 | 93 | 1016.5 |
| 20260510004505 | 10 | 27 | 9.7 | 29.0 | 0.00 | 0.00 | 0.00 | 93 | 1016.6 |
| 20260510004003 | 10 | 29 | 8.0 | 29.0 | 0.00 | 0.00 | 0.00 | 93 | 1016.7 |
| 20260510003506 | 10 | 36 | 6.4 | 22.5 | 0.00 | 0.00 | 0.00 | 93 | 1016.6 |
| 20260510003004 | 10 | 25 | 8.0 | 22.5 | 0.00 | 0.00 | 0.00 | 93 | 1017.0 |
| 20260510002504 | 10 | 14 | 8.0 | 22.5 | 0.00 | 0.00 | 0.00 | 93 | 1016.7 |
| 20260510002003 | 10 | 24 | 6.4 | 25.7 | 0.00 | 0.00 | 0.00 | 93 | 1016.7 |
| 20260510001505 | 10 | 29 | 8.0 | 29.0 | 0.00 | 0.00 | 0.00 | 93 | 1016.8 |
| 20260510001005 | 10 | 19 | 11.3 | 29.0 | 0.00 | 0.00 | 0.00 | 93 | 1017.0 |
| 20260510000718 | 10 | 25 | 9.7 | 33.8 | 0.00 | 0.00 | 0.00 | 93 | 1016.8 |
| 20260510000004 | 10 | 13 | 9.7 | 33.8 | 0.00 | 0.00 | 0.00 | 93 | 1016.8 |
| 20260509235503 | 10 | 10 | 9.7 | 25.7 | 0.00 | 0.00 | 0.00 | 93 | 1016.7 |
| 20260509235003 | 10 | 18 | 11.3 | 29.0 | 0.00 | 0.00 | 0.00 | 93 | 1016.5 |
| 20260509234505 | 10 | 21 | 14.5 | 40.2 | 0.00 | 0.00 | 0.00 | 93 | 1016.7 |
| 20260509234005 | 10 | 25 | 14.5 | 40.2 | 0.00 | 0.00 | 0.00 | 93 | 1016.7 |
| 20260509233503 | 10 | 40 | 12.9 | 33.8 | 0.00 | 0.00 | 0.00 | 93 | 1016.5 |
| 20260509233003 | 10 | 35 | 12.9 | 33.8 | 0.00 | 0.00 | 0.00 | 93 | 1016.8 |
| 20260509232505 | 10 | 23 | 14.5 | 37.0 | 0.00 | 0.00 | 0.00 | 93 | 1016.7 |
| 20260509232003 | 10 | 27 | 16.1 | 37.0 | 0.00 | 0.00 | 0.00 | 93 | 1017.0 |
| 20260509231505 | 10 | 26 | 16.1 | 33.8 | 0.00 | 0.00 | 0.00 | 93 | 1016.9 |
| 20260509231005 | 10 | 33 | 16.1 | 33.8 | 0.00 | 0.00 | 0.00 | 93 | 1016.8 |
| 20260509230505 | 10 | 22 | 17.7 | 33.8 | 0.00 | 0.00 | 0.00 | 93 | 1017.0 |
| 20260509230217 | 10 | 17 | 16.1 | 37.0 | 0.00 | 0.00 | 0.00 | 93 | 1016.9 |
| 20260509225505 | 10 | 23 | 12.9 | 37.0 | 0.00 | 0.00 | 0.00 | 93 | 1017.0 |
| 20260509225005 | 10 | 27 | 14.5 | 33.8 | 0.00 | 0.00 | 0.00 | 93 | 1016.9 |
| 20260509224505 | 10 | 12 | 17.7 | 40.2 | 0.00 | 0.00 | 0.00 | 93 | 1016.8 |
| 20260509224005 | 10 | 22 | 14.5 | 40.2 | 0.00 | 0.00 | 0.00 | 93 | 1017.0 |
| 20260509223505 | 10 | 36 | 14.5 | 33.8 | 0.00 | 0.00 | 0.00 | 92 | 1016.8 |
| 20260509223219 | 10 | 35 | 12.9 | 33.8 | 0.00 | 0.00 | 0.00 | 92 | 1016.8 |
| 20260509222503 | 10 | 37 | 11.3 | 25.7 | 0.00 | 0.00 | 0.00 | 92 | 1017.0 |
| 20260509222005 | 10 | 35 | 11.3 | 33.8 | 0.00 | 0.00 | 0.00 | 92 | 1016.9 |
| 20260509221503 | 10 | 48 | 11.3 | 43.5 | 0.00 | 0.00 | 0.00 | 92 | 1016.9 |
| 20260509221219 | 10 | 43 | 11.3 | 43.5 | 0.00 | 0.00 | 0.00 | 92 | 1016.8 |
| 20260509220718 | 10 | 32 | 12.9 | 43.5 | 0.00 | 0.00 | 0.00 | 92 | 1016.6 |
| 20260509220005 | 10 | 44 | 12.9 | 43.5 | 0.00 | 0.00 | 0.00 | 91 | 1016.6 |
| 20260509215720 | 10 | 24 | 12.9 | 40.2 | 0.00 | 0.00 | 0.00 | 91 | 1016.7 |
| 20260509215003 | 10 | 10 | 16.1 | 40.2 | 0.00 | 0.00 | 0.00 | 91 | 1016.6 |
| 20260509214505 | 10 | 9 | 16.1 | 40.2 | 0.00 | 0.00 | 0.00 | 91 | 1016.5 |
| 20260509214005 | 10 | 15 | 16.1 | 40.2 | 0.00 | 0.00 | 0.00 | 91 | 1016.5 |
| 20260509213505 | 10 | 17 | 16.1 | 40.2 | 0.00 | 0.00 | 0.00 | 90 | 1016.6 |
| 20260509213005 | 10 | 18 | 14.5 | 33.8 | 0.00 | 0.00 | 0.00 | 90 | 1016.6 |
| 20260509212503 | 10 | 19 | 14.5 | 33.8 | 0.00 | 0.00 | 0.00 | 90 | 1016.5 |
| 20260509212003 | 10 | 24 | 11.3 | 33.8 | 0.00 | 0.00 | 0.00 | 90 | 1016.7 |
| 20260509211504 | 10 | 42 | 11.3 | 37.0 | 0.00 | 0.00 | 0.00 | 90 | 1016.6 |
| 20260509211005 | 10 | 29 | 12.9 | 37.0 | 0.00 | 0.00 | 0.00 | 90 | 1016.6 |
| 20260509210505 | 10 | 14 | 14.5 | 37.0 | 0.00 | 0.00 | 0.00 | 90 | 1016.6 |
| 20260509210005 | 10 | 19 | 14.5 | 40.2 | 0.00 | 0.00 | 0.00 | 90 | 1016.7 |
| 20260509205505 | 10 | 16 | 12.9 | 40.2 | 0.00 | 0.00 | 0.00 | 90 | 1016.6 |
| 20260509205003 | 10 | 26 | 14.5 | 37.0 | 0.00 | 0.00 | 0.00 | 90 | 1016.7 |
| 20260509204503 | 10 | 23 | 14.5 | 40.2 | 0.00 | 0.00 | 0.00 | 90 | 1016.7 |
| 20260509204003 | 10 | 23 | 16.1 | 48.3 | 0.00 | 0.00 | 0.00 | 90 | 1016.6 |
| 20260509203505 | 10 | 23 | 16.1 | 48.3 | 0.00 | 0.00 | 0.00 | 90 | 1016.4 |
| 20260509203005 | 10 | 27 | 17.7 | 40.2 | 0.00 | 0.00 | 0.00 | 90 | 1016.6 |
| 20260509202505 | 10 | 17 | 17.7 | 40.2 | 0.00 | 0.00 | 0.00 | 90 | 1016.4 |